Simultaneous Nadir Overpasses (SNOs) Predictions

Prediction of SNOs between GOES-14 and AQUA Satellite Orbit:

Table of predicted SNOs for the next 14.0 days since TLE Epoch: 4/20/2024
Index Date Time (GOES-14) GOES-14 Lat,Lon AQUA Lat,Lon Distance(km) Time Diff (sec)
1 04/20/2024 09:16:43 0.17,-108.58 0.05,-107.90 77.44 80
2 04/20/2024 21:37:06 -0.16,-108.58 -1.07,-112.84 484.09 80
3 04/22/2024 21:20:59 -0.16,-108.59 -0.25,-108.90 34.99 80
4 04/24/2024 21:07:31 -0.16,-108.60 0.65,-104.96 414.96 80
5 04/25/2024 09:27:45 0.15,-108.61 0.39,-109.86 141.55 80
6 04/27/2024 09:08:53 0.15,-108.61 -0.43,-105.89 308.72 80
7 04/27/2024 21:29:14 -0.14,-108.60 -0.64,-110.82 252.88 80
8 04/29/2024 21:15:40 -0.15,-108.59 0.23,-106.85 198.47 80
9 04/30/2024 09:35:53 0.13,-108.61 0.78,-111.75 356.73 80
10 05/02/2024 09:16:55 0.15,-108.60 -0.02,-107.76 95.73 80
11 05/02/2024 21:37:15 -0.13,-108.58 -1.02,-112.68 466.16 80
